STARLINK-11728, 64323

Orbit data source: Space-Track

STARLINK-11728, 64323 is a payload satellite owned by SpaceX/Seattle (US) in LEO that was launched on Tue, 10 Jun 2025 UTC via an FALCON 9 launch vehicle from the Air Force Eastern Test Range (AFETR). Payload-class satellites include a variety of spacecraft equipped with specific instruments for various scientific and technological missions. These include communications satellites like Starlink; space stations such as the ISS; scientific satellites like the Hubble; Earth observation satellites from companies like Planet Labs, Umbra, and HawkEye 360; GPS; miniature CubeSats for education and research; and military/defense satellites.

Loading next visibility...
Identifier
64323, 2025-124G
Orbit
LEO
Last TLE update
9 hours ago
Origin
Manufacturer
SpaceX/Seattle
Mission
Operational spacecraft
Bus & Motor
STARLINK V2M, Unknown motor
Mass
730 kg wet, ~700 kg dry
Launch date (UTC)
2025-06-10 (3 weeks ago)
Launch vehicle
FALCON 9
Launch site
Air Force Eastern Test Range (AFETR)
Object type
Payload
Rocket body
Debris
Shape & HBR
Unknown
Radar Cross Section
Large (>1 m²)

Expand to show TLE details & history

TLE from 9 hours ago
0 STARLINK-11728
1 64323U 25124G   25182.18721625  .00191174  00000-0  10740-2 0  9999
2 64323  43.0003 105.7324 0001952 275.8890  84.1758 15.77917247  4207
Epoch: 2025-07-01T04:29Z
TLE epoch observation values (Epoch: 2025-07-01T04:29:35.484Z)
Latitude
0.00002°
Longitude
118.8483°
Altitude
335.98 km
Speed
7.709 km/s
True Right ascension
07h 02m 55s
True Declination
0° 00' 00"
Sunlit
Object was in daylight at epoch
Visualization orbit readout
Latitude
0.92399°
Longitude
117.5176°
Altitude
335.433 km
Speed
7.709 km/s
Apparent Right ascension
09h 28m 17s
Apparent Declination
-26° 22' 50"
Sunlit
Object is in daylight
Visualization observer readout
Local Sidereal Time
01:15:45
Azimuth
92.031° ESE
Elevation
-41.35°
Doppler factor
1
Orbital elements
Apogee altitude
339.641 km
Perigee altitude
337.019 km
Semi-major axis
6,716.467 km
Eccentricity
0.0002
Inclination
43.0003°
RAAN
105.7324°
Arg. of periapsis
275.889°
True anomaly
Unknown
Mean anomaly
84.1758°
Eccentric anomaly
Unknown
Mean motion
3.94305 °/min
Orbital period
91.3 mins
BSTAR
0.001074
Loading maneuver chart data...
Loading SW <> Apogee altitude chart data...
Loading historical data...
Loading historical data...
Loading historical data...
Loading historical data...
Loading historical data...
Loading historical data...
Loading historical data...

STARLINK-11728 Visibility forecast

Observer location: undefined°, undefined°

Span
Click to sort rows by Start time (UTC) header in descending order
Start Az.
Max El. time (UTC)
Max El. Az.
Max El.
End time (UTC)
End Az.
4 mins2025-07-01 22:58:47.640Z236.352° WSW2025-07-01 22:59:47.640Z210.523° SW40.231°2025-07-01 23:02:47.640Z75.17° E
4 mins2025-07-02 03:45:47.640Z259.166° W2025-07-02 03:46:47.640Z230.723° WSW24.873°2025-07-02 03:49:47.640Z145.248° SSE
|